Location: Heiligenberg
(48.5381°N, 7.3897°E)
Time: 20:44:04
(UTC+00:00)

CZ-2D R/B - Pass Details

Date: 26 May 2022
Orbit: 790 x 845 km, 98.7° (Epoch: 03 July)

Event Time Altitude Azimuth Distance (km) Brightness Sun altitude
Rises 00:51:35 0° 18° (NNE) 3,384 7.1 -17.9°
Reaches altitude 10° 00:54:01 10° 23° (NNE) 2,438 5.9 -17.7°
Maximum altitude 00:59:18 55° 100° (E) 983 2.6 -17.4°
Enters shadow 01:02:29 23° 170° (S) 1,660 3.3 -17.2°
